Time,TemperatureF,DewpointF,PressureIn,WindDirection,WindDirectionDegrees,WindSpeedMPH,WindSpeedGustMPH,Humidity,HourlyPrecipIn,Conditions,Clouds,dailyrainin,SoftwareType,DateUTC
2013-03-12 00:00:00,35.5,32.3,30.11,West,267,0.0,0.0,88,0.00,,,0.00,WUHU216DAVISVP2,2013-03-12 04:00:00,
2013-03-12 00:05:00,35.2,32.0,30.10,West,267,0.0,1.0,88,0.00,,,0.00,WUHU216DAVISVP2,2013-03-12 04:05:00,
2013-03-12 00:10:00,35.0,31.8,30.10,West,267,0.0,1.0,88,0.00,,,0.00,WUHU216DAVISVP2,2013-03-12 04:10:00,
2013-03-12 00:15:00,34.8,31.8,30.10,West,267,0.0,1.0,89,0.00,,,0.00,WUHU216DAVISVP2,2013-03-12 04:15:00,
2013-03-12 00:20:00,34.7,31.7,30.10,West,267,0.0,1.0,89,0.00,,,0.00,WUHU216DAVISVP2,2013-03-12 04:20:00,
2013-03-12 00:25:00,34.5,31.5,30.10,West,267,0.0,0.0,89,0.00,,,0.00,WUHU216DAVISVP2,2013-03-12 04:25:00,
2013-03-12 00:30:00,34.4,31.7,30.10,West,267,0.0,0.0,90,0.00,,,0.00,WUHU216DAVISVP2,2013-03-12 04:30:00,
2013-03-12 00:35:00,34.3,31.6,30.09,West,267,0.0,0.0,90,0.00,,,0.00,WUHU216DAVISVP2,2013-03-12 04:35:00,
2013-03-12 00:40:00,34.2,31.5,30.09,West,267,0.0,0.0,90,0.00,,,0.00,WUHU216DAVISVP2,2013-03-12 04:40:00,
2013-03-12 00:45:00,34.1,31.4,30.08,West,267,0.0,0.0,90,0.00,,,0.00,WUHU216DAVISVP2,2013-03-12 04:45:00,
2013-03-12 00:50:00,34.0,31.6,30.08,West,267,0.0,0.0,91,0.00,,,0.00,WUHU216DAVISVP2,2013-03-12 04:50:00,
2013-03-12 00:55:00,34.0,31.6,30.09,West,267,0.0,0.0,91,0.00,,,0.00,WUHU216DAVISVP2,2013-03-12 04:55:00,
2013-03-12 01:00:00,33.9,31.5,30.09,West,267,0.0,0.0,91,0.00,,,0.00,WUHU216DAVISVP2,2013-03-12 05:00:00,
2013-03-12 01:05:00,33.9,31.8,30.10,West,267,0.0,0.0,92,0.00,,,0.00,WUHU216DAVISVP2,2013-03-12 05:05:00,
2013-03-12 01:10:00,33.9,31.8,30.09,West,267,1.0,1.0,92,0.00,,,0.00,WUHU216DAVISVP2,2013-03-12 05:10:00,
2013-03-12 01:15:00,33.9,31.8,30.09,West,267,0.0,1.0,92,0.00,,,0.00,WUHU216DAVISVP2,2013-03-12 05:15:00,
2013-03-12 01:20:00,33.8,31.7,30.09,West,267,0.0,1.0,92,0.00,,,0.00,WUHU216DAVISVP2,2013-03-12 05:20:00,
2013-03-12 01:25:00,33.7,31.6,30.09,West,267,0.0,1.0,92,0.00,,,0.00,WUHU216DAVISVP2,2013-03-12 05:25:00,
2013-03-12 01:30:00,33.6,31.5,30.08,West,267,0.0,0.0,92,0.00,,,0.00,WUHU216DAVISVP2,2013-03-12 05:30:00,
2013-03-12 01:35:00,33.6,31.5,30.08,West,267,0.0,0.0,92,0.00,,,0.00,WUHU216DAVISVP2,2013-03-12 05:35:00,
2013-03-12 01:40:00,33.6,31.5,30.09,West,267,0.0,0.0,92,0.00,,,0.00,WUHU216DAVISVP2,2013-03-12 05:40:00,
2013-03-12 01:45:00,33.7,31.8,30.09,West,267,0.0,0.0,93,0.00,,,0.00,WUHU216DAVISVP2,2013-03-12 05:45:00,
2013-03-12 01:50:00,33.9,32.0,30.09,West,267,0.0,0.0,93,0.00,,,0.00,WUHU216DAVISVP2,2013-03-12 05:50:00,
2013-03-12 01:55:00,34.0,32.1,30.09,West,267,0.0,0.0,93,0.00,,,0.00,WUHU216DAVISVP2,2013-03-12 05:55:00,
2013-03-12 02:00:00,34.2,32.3,30.08,West,267,0.0,0.0,93,0.00,,,0.00,WUHU216DAVISVP2,2013-03-12 06:00:00,
2013-03-12 02:05:00,34.3,32.7,30.08,West,267,0.0,0.0,94,0.00,,,0.00,WUHU216DAVISVP2,2013-03-12 06:05:00,
2013-03-12 02:10:00,34.7,33.4,30.08,West,267,0.0,0.0,95,0.00,,,0.00,WUHU216DAVISVP2,2013-03-12 06:10:00,
2013-03-12 02:15:00,35.5,34.4,30.08,West,267,0.0,1.0,96,0.00,,,0.00,WUHU216DAVISVP2,2013-03-12 06:15:00,
2013-03-12 02:20:00,36.2,35.4,30.08,West,267,0.0,1.0,97,0.00,,,0.00,WUHU216DAVISVP2,2013-03-12 06:20:00,
2013-03-12 02:25:00,36.8,36.0,30.07,West,267,1.0,1.0,97,0.00,,,0.00,WUHU216DAVISVP2,2013-03-12 06:25:00,
2013-03-12 02:30:00,37.3,36.5,30.08,West,267,1.0,1.0,97,0.00,,,0.00,WUHU216DAVISVP2,2013-03-12 06:30:00,
2013-03-12 02:35:00,37.8,37.0,30.08,West,267,0.0,1.0,97,0.00,,,0.00,WUHU216DAVISVP2,2013-03-12 06:35:00,
2013-03-12 02:40:00,38.2,37.4,30.07,West,267,0.0,1.0,97,0.00,,,0.00,WUHU216DAVISVP2,2013-03-12 06:40:00,
2013-03-12 02:45:00,38.4,37.6,30.07,West,267,1.0,1.0,97,0.00,,,0.00,WUHU216DAVISVP2,2013-03-12 06:45:00,
2013-03-12 02:50:00,38.7,37.9,30.07,West,267,0.0,1.0,97,0.00,,,0.00,WUHU216DAVISVP2,2013-03-12 06:50:00,
2013-03-12 02:55:00,39.1,38.3,30.07,West,267,1.0,1.0,97,0.00,,,0.00,WUHU216DAVISVP2,2013-03-12 06:55:00,
2013-03-12 03:00:00,39.3,38.5,30.06,West,267,0.0,1.0,97,0.00,,,0.00,WUHU216DAVISVP2,2013-03-12 07:00:00,
2013-03-12 03:05:00,39.4,38.4,30.05,West,267,0.0,1.0,96,0.00,,,0.00,WUHU216DAVISVP2,2013-03-12 07:05:00,
2013-03-12 03:10:00,39.5,38.5,30.06,West,267,0.0,2.0,96,0.00,,,0.00,WUHU216DAVISVP2,2013-03-12 07:10:00,
2013-03-12 03:15:00,39.6,38.6,30.06,West,267,0.0,2.0,96,0.00,,,0.00,WUHU216DAVISVP2,2013-03-12 07:15:00,
2013-03-12 03:20:00,39.7,38.7,30.06,West,267,0.0,2.0,96,0.00,,,0.00,WUHU216DAVISVP2,2013-03-12 07:20:00,
2013-03-12 03:25:00,39.6,38.6,30.06,West,267,0.0,2.0,96,0.00,,,0.00,WUHU216DAVISVP2,2013-03-12 07:25:00,
2013-03-12 03:30:00,39.5,38.5,30.06,West,267,0.0,0.0,96,0.00,,,0.00,WUHU216DAVISVP2,2013-03-12 07:30:00,
2013-03-12 03:35:00,39.3,38.0,30.05,West,267,0.0,0.0,95,0.00,,,0.00,WUHU216DAVISVP2,2013-03-12 07:35:00,
2013-03-12 03:40:00,39.1,37.8,30.06,West,267,0.0,0.0,95,0.00,,,0.00,WUHU216DAVISVP2,2013-03-12 07:40:00,
2013-03-12 03:45:00,38.9,37.5,30.05,West,267,0.0,0.0,95,0.00,,,0.00,WUHU216DAVISVP2,2013-03-12 07:45:00,
2013-03-12 03:50:00,38.6,37.2,30.05,West,267,0.0,0.0,95,0.00,,,0.00,WUHU216DAVISVP2,2013-03-12 07:50:00,
2013-03-12 03:55:00,38.4,37.1,30.05,West,267,0.0,0.0,95,0.00,,,0.00,WUHU216DAVISVP2,2013-03-12 07:55:00,
2013-03-12 04:00:00,38.5,37.4,30.05,West,267,0.0,1.0,96,0.00,,,0.00,WUHU216DAVISVP2,2013-03-12 08:00:00,
2013-03-12 04:05:00,38.7,37.6,30.04,West,267,0.0,1.0,96,0.00,,,0.00,WUHU216DAVISVP2,2013-03-12 08:05:00,
2013-03-12 04:10:00,39.4,38.6,30.04,West,267,1.0,1.0,97,0.00,,,0.00,WUHU216DAVISVP2,2013-03-12 08:10:00,
2013-03-12 04:15:00,39.7,38.9,30.05,West,267,0.0,1.0,97,0.00,,,0.00,WUHU216DAVISVP2,2013-03-12 08:15:00,
2013-03-12 04:20:00,40.0,39.2,30.05,West,267,0.0,1.0,97,0.00,,,0.00,WUHU216DAVISVP2,2013-03-12 08:20:00,
2013-03-12 04:25:00,40.1,39.3,30.05,West,267,0.0,1.0,97,0.00,,,0.00,WUHU216DAVISVP2,2013-03-12 08:25:00,
2013-03-12 04:30:00,40.0,39.2,30.05,West,267,0.0,0.0,97,0.00,,,0.00,WUHU216DAVISVP2,2013-03-12 08:30:00,
2013-03-12 04:35:00,39.8,38.7,30.04,West,267,0.0,0.0,96,0.00,,,0.00,WUHU216DAVISVP2,2013-03-12 08:35:00,
2013-03-12 04:40:00,39.4,38.3,30.04,West,267,0.0,1.0,96,0.00,,,0.00,WUHU216DAVISVP2,2013-03-12 08:40:00,
2013-03-12 04:45:00,39.0,37.9,30.03,West,267,0.0,1.0,96,0.00,,,0.00,WUHU216DAVISVP2,2013-03-12 08:45:00,
2013-03-12 04:50:00,38.7,37.6,30.03,West,267,0.0,1.0,96,0.00,,,0.00,WUHU216DAVISVP2,2013-03-12 08:50:00,
2013-03-12 04:55:00,38.8,38.0,30.03,West,267,0.0,1.0,97,0.00,,,0.00,WUHU216DAVISVP2,2013-03-12 08:55:00,
2013-03-12 05:00:00,39.1,38.3,30.03,West,267,0.0,1.0,97,0.00,,,0.00,WUHU216DAVISVP2,2013-03-12 09:00:00,
2013-03-12 05:05:00,39.3,38.5,30.03,West,267,1.0,1.0,97,0.00,,,0.00,WUHU216DAVISVP2,2013-03-12 09:05:00,
2013-03-12 05:10:00,39.7,38.9,30.02,West,267,0.0,1.0,97,0.00,,,0.00,WUHU216DAVISVP2,2013-03-12 09:10:00,
2013-03-12 05:15:00,40.0,39.5,30.02,West,267,1.0,1.0,98,0.00,,,0.00,WUHU216DAVISVP2,2013-03-12 09:15:00,
2013-03-12 05:20:00,40.0,39.5,30.02,West,267,1.0,1.0,98,0.00,,,0.00,WUHU216DAVISVP2,2013-03-12 09:20:00,
2013-03-12 05:25:00,40.2,39.4,30.02,West,267,0.0,1.0,97,0.00,,,0.00,WUHU216DAVISVP2,2013-03-12 09:25:00,
2013-03-12 05:30:00,40.2,39.7,30.02,West,261,0.0,3.0,98,0.00,,,0.00,WUHU216DAVISVP2,2013-03-12 09:30:00,
2013-03-12 05:35:00,40.3,39.8,30.02,West,261,0.0,3.0,98,0.00,,,0.00,WUHU216DAVISVP2,2013-03-12 09:35:00,
2013-03-12 05:40:00,40.4,39.9,30.02,West,261,0.0,3.0,98,0.00,,,0.00,WUHU216DAVISVP2,2013-03-12 09:40:00,
2013-03-12 05:45:00,40.5,40.0,30.03,West,261,0.0,3.0,98,0.00,,,0.00,WUHU216DAVISVP2,2013-03-12 09:45:00,
2013-03-12 05:50:00,40.9,40.4,30.03,WSW,256,1.0,3.0,98,0.00,,,0.00,WUHU216DAVISVP2,2013-03-12 09:50:00,
2013-03-12 05:55:00,40.9,40.4,30.03,WSW,256,0.0,3.0,98,0.00,,,0.00,WUHU216DAVISVP2,2013-03-12 09:55:00,
2013-03-12 06:00:00,41.1,40.6,30.02,SE,141,1.6,3.0,98,0.00,,,0.00,WUHU216DAVISVP2,2013-03-12 10:00:00,
2013-03-12 06:05:00,41.6,41.1,30.02,South,180,1.0,3.0,98,0.00,,,0.00,WUHU216DAVISVP2,2013-03-12 10:05:00,
2013-03-12 06:10:00,41.9,41.4,30.02,SSE,152,1.5,4.0,98,0.00,,,0.00,WUHU216DAVISVP2,2013-03-12 10:10:00,
2013-03-12 06:15:00,42.1,41.6,30.02,SE,130,1.0,4.0,98,0.00,,,0.00,WUHU216DAVISVP2,2013-03-12 10:15:00,
2013-03-12 06:20:00,42.1,41.6,30.03,SE,130,0.0,4.0,98,0.00,,,0.00,WUHU216DAVISVP2,2013-03-12 10:20:00,
2013-03-12 06:25:00,42.2,41.7,30.03,South,186,2.0,4.0,98,0.00,,,0.00,WUHU216DAVISVP2,2013-03-12 10:25:00,
2013-03-12 06:30:00,42.3,41.8,30.03,SSE,167,0.0,4.0,98,0.00,,,0.00,WUHU216DAVISVP2,2013-03-12 10:30:00,
2013-03-12 06:35:00,42.1,41.6,30.03,SSE,167,0.0,4.0,98,0.00,,,0.00,WUHU216DAVISVP2,2013-03-12 10:35:00,
2013-03-12 06:40:00,42.0,41.5,30.03,SSE,167,1.0,4.0,98,0.00,,,0.00,WUHU216DAVISVP2,2013-03-12 10:40:00,
2013-03-12 06:45:00,41.8,41.3,30.03,SSE,167,0.0,1.0,98,0.00,,,0.00,WUHU216DAVISVP2,2013-03-12 10:45:00,
2013-03-12 06:50:00,41.5,41.0,30.02,SSE,167,0.0,1.0,98,0.00,,,0.00,WUHU216DAVISVP2,2013-03-12 10:50:00,
2013-03-12 06:56:00,41.3,40.5,30.02,SSE,154,1.6,3.0,97,0.00,,,0.00,WUHU216DAVISVP2,2013-03-12 10:56:00,
2013-03-12 07:00:00,41.4,40.9,30.02,SE,144,1.2,3.0,98,0.00,,,0.00,WUHU216DAVISVP2,2013-03-12 11:00:00,
2013-03-12 07:05:00,41.6,41.1,30.02,SE,144,0.0,3.0,98,0.00,,,0.00,WUHU216DAVISVP2,2013-03-12 11:05:00,
2013-03-12 07:10:00,41.5,41.0,30.02,SE,144,0.0,3.0,98,0.00,,,0.00,WUHU216DAVISVP2,2013-03-12 11:10:00,
2013-03-12 07:16:00,41.6,41.1,30.02,SE,144,0.0,2.0,98,0.00,,,0.00,WUHU216DAVISVP2,2013-03-12 11:16:00,
2013-03-12 07:21:00,41.7,41.2,30.02,SE,144,0.0,1.0,98,0.00,,,0.00,WUHU216DAVISVP2,2013-03-12 11:21:00,
2013-03-12 07:26:00,41.6,41.1,30.02,SE,144,0.0,1.0,98,0.00,,,0.00,WUHU216DAVISVP2,2013-03-12 11:26:00,
2013-03-12 07:31:00,41.6,41.1,30.02,SE,144,0.0,1.0,98,0.00,,,0.00,WUHU216DAVISVP2,2013-03-12 11:31:00,
2013-03-12 07:36:00,41.3,40.8,30.01,SE,144,0.0,1.0,98,0.00,,,0.00,WUHU216DAVISVP2,2013-03-12 11:36:00,
2013-03-12 07:41:00,41.2,40.7,30.01,SE,144,0.0,0.0,98,0.00,,,0.00,WUHU216DAVISVP2,2013-03-12 11:41:00,
2013-03-12 07:46:00,41.1,40.6,30.01,SE,144,0.0,1.0,98,0.00,,,0.00,WUHU216DAVISVP2,2013-03-12 11:46:00,
2013-03-12 07:51:00,40.9,40.4,30.01,SE,144,0.0,1.0,98,0.00,,,0.00,WUHU216DAVISVP2,2013-03-12 11:51:00,
2013-03-12 07:56:00,40.6,40.1,30.01,SE,144,0.0,1.0,98,0.00,,,0.00,WUHU216DAVISVP2,2013-03-12 11:56:00,
2013-03-12 08:01:00,40.2,39.4,30.02,SE,144,0.0,1.0,97,0.00,,,0.00,WUHU216DAVISVP2,2013-03-12 12:01:00,
2013-03-12 08:06:00,40.4,39.9,30.02,SE,144,0.0,1.0,98,0.00,,,0.00,WUHU216DAVISVP2,2013-03-12 12:06:00,
2013-03-12 08:11:00,40.2,39.7,30.01,SE,144,0.0,1.0,98,0.00,,,0.00,WUHU216DAVISVP2,2013-03-12 12:11:00,
2013-03-12 08:16:00,40.0,39.5,30.01,SE,144,0.0,1.0,98,0.00,,,0.00,WUHU216DAVISVP2,2013-03-12 12:16:00,
2013-03-12 08:21:00,40.2,39.7,30.01,SE,144,0.0,1.0,98,0.00,,,0.00,WUHU216DAVISVP2,2013-03-12 12:21:00,
2013-03-12 08:26:00,40.4,39.9,30.01,SE,144,0.0,0.0,98,0.00,,,0.00,WUHU216DAVISVP2,2013-03-12 12:26:00,
2013-03-12 08:31:00,40.5,40.0,30.01,SE,144,0.0,0.0,98,0.00,,,0.00,WUHU216DAVISVP2,2013-03-12 12:31:00,
2013-03-12 08:36:00,40.2,39.7,30.01,SE,144,0.0,0.0,98,0.00,,,0.00,WUHU216DAVISVP2,2013-03-12 12:36:00,
2013-03-12 08:41:00,40.0,39.5,30.01,SE,144,0.0,0.0,98,0.00,,,0.00,WUHU216DAVISVP2,2013-03-12 12:41:00,
2013-03-12 08:46:00,40.1,39.6,30.00,SE,144,0.0,0.0,98,0.00,,,0.00,WUHU216DAVISVP2,2013-03-12 12:46:00,
2013-03-12 08:51:00,40.2,39.7,30.00,SE,144,0.0,0.0,98,0.00,,,0.00,WUHU216DAVISVP2,2013-03-12 12:51:00,
2013-03-12 08:56:00,40.1,39.6,30.00,SE,144,0.0,0.0,98,0.00,,,0.00,WUHU216DAVISVP2,2013-03-12 12:56:00,
2013-03-12 09:01:00,40.2,39.7,30.00,SE,144,0.0,0.0,98,0.00,,,0.00,WUHU216DAVISVP2,2013-03-12 13:01:00,
2013-03-12 09:06:00,40.6,40.1,30.00,SE,144,0.0,0.0,98,0.00,,,0.00,WUHU216DAVISVP2,2013-03-12 13:06:00,
2013-03-12 09:11:00,40.6,40.1,30.00,SE,144,0.0,0.0,98,0.00,,,0.00,WUHU216DAVISVP2,2013-03-12 13:11:00,
2013-03-12 09:16:00,40.4,39.9,30.00,SE,144,0.0,0.0,98,0.00,,,0.00,WUHU216DAVISVP2,2013-03-12 13:16:00,
2013-03-12 09:21:00,40.2,39.7,30.00,SE,144,0.0,0.0,98,0.01,,,0.01,WUHU216DAVISVP2,2013-03-12 13:21:00,
2013-03-12 09:26:00,40.1,39.6,30.00,SE,144,0.0,0.0,98,0.01,,,0.01,WUHU216DAVISVP2,2013-03-12 13:26:00,
2013-03-12 09:31:00,40.0,39.5,30.00,SE,144,0.0,0.0,98,0.01,,,0.01,WUHU216DAVISVP2,2013-03-12 13:31:00,
2013-03-12 09:36:00,40.3,39.8,30.00,SE,144,0.0,0.0,98,0.01,,,0.02,WUHU216DAVISVP2,2013-03-12 13:36:00,
2013-03-12 09:41:00,40.4,39.9,30.00,SE,144,0.0,0.0,98,0.02,,,0.02,WUHU216DAVISVP2,2013-03-12 13:41:00,
2013-03-12 09:46:00,40.6,40.1,30.00,SE,144,0.0,1.0,98,0.02,,,0.02,WUHU216DAVISVP2,2013-03-12 13:46:00,
2013-03-12 09:51:00,40.7,40.2,30.00,SE,144,0.0,1.0,98,0.02,,,0.02,WUHU216DAVISVP2,2013-03-12 13:51:00,
2013-03-12 09:56:00,41.0,40.7,30.00,SE,144,0.0,1.0,99,0.02,,,0.02,WUHU216DAVISVP2,2013-03-12 13:56:00,
2013-03-12 10:01:00,41.5,41.2,29.99,SE,144,1.0,2.0,99,0.02,,,0.02,WUHU216DAVISVP2,2013-03-12 14:01:00,
2013-03-12 10:06:00,41.5,41.2,30.00,SE,144,0.0,2.0,99,0.03,,,0.03,WUHU216DAVISVP2,2013-03-12 14:06:00,
2013-03-12 10:11:00,41.4,41.1,29.99,SE,144,0.0,2.0,99,0.03,,,0.03,WUHU216DAVISVP2,2013-03-12 14:11:00,
2013-03-12 10:16:00,41.6,41.1,29.99,SE,144,1.0,2.0,98,0.02,,,0.03,WUHU216DAVISVP2,2013-03-12 14:16:00,
2013-03-12 10:21:00,41.8,41.3,29.99,SE,144,1.0,1.0,98,0.02,,,0.03,WUHU216DAVISVP2,2013-03-12 14:21:00,
2013-03-12 10:26:00,42.0,41.7,29.98,SE,144,0.0,1.0,99,0.02,,,0.03,WUHU216DAVISVP2,2013-03-12 14:26:00,
2013-03-12 10:32:00,42.5,42.2,29.98,SE,144,0.0,1.0,99,0.02,,,0.03,WUHU216DAVISVP2,2013-03-12 14:32:00,
2013-03-12 10:37:00,42.9,42.6,29.98,SSE,157,0.0,2.0,99,0.01,,,0.03,WUHU216DAVISVP2,2013-03-12 14:37:00,
2013-03-12 10:42:00,43.3,43.0,29.98,SSE,157,1.0,2.0,99,0.01,,,0.03,WUHU216DAVISVP2,2013-03-12 14:42:00,
2013-03-12 10:47:00,43.6,43.3,29.97,SSE,157,0.0,2.0,99,0.01,,,0.03,WUHU216DAVISVP2,2013-03-12 14:47:00,
2013-03-12 10:52:00,43.8,43.5,29.97,West,275,1.0,2.0,99,0.01,,,0.03,WUHU216DAVISVP2,2013-03-12 14:52:00,
2013-03-12 10:57:00,44.0,43.7,29.97,West,275,0.0,2.0,99,0.01,,,0.03,WUHU216DAVISVP2,2013-03-12 14:57:00,
2013-03-12 11:02:00,44.2,43.9,29.97,West,271,0.0,2.0,99,0.00,,,0.03,WUHU216DAVISVP2,2013-03-12 15:02:00,
2013-03-12 11:07:00,44.5,44.2,29.97,West,271,1.0,2.0,99,0.00,,,0.03,WUHU216DAVISVP2,2013-03-12 15:07:00,
2013-03-12 11:12:00,44.5,44.2,29.96,WNW,284,1.0,2.0,99,0.00,,,0.03,WUHU216DAVISVP2,2013-03-12 15:12:00,
2013-03-12 11:17:00,44.6,44.3,29.96,South,173,2.2,4.0,99,0.00,,,0.03,WUHU216DAVISVP2,2013-03-12 15:17:00,
2013-03-12 11:22:00,45.0,44.7,29.96,East,96,1.4,4.0,99,0.00,,,0.03,WUHU216DAVISVP2,2013-03-12 15:22:00,
2013-03-12 11:27:00,45.1,44.8,29.96,SE,137,1.0,4.0,99,0.00,,,0.03,WUHU216DAVISVP2,2013-03-12 15:27:00,
2013-03-12 11:32:00,45.3,45.0,29.96,SSE,150,1.2,5.0,99,0.00,,,0.03,WUHU216DAVISVP2,2013-03-12 15:32:00,
2013-03-12 11:37:00,45.4,45.1,29.95,SSE,150,0.0,5.0,99,0.00,,,0.03,WUHU216DAVISVP2,2013-03-12 15:37:00,
2013-03-12 11:42:00,45.4,45.1,29.95,SSE,150,1.0,5.0,99,0.00,,,0.03,WUHU216DAVISVP2,2013-03-12 15:42:00,
2013-03-12 11:47:00,45.7,45.4,29.95,SE,132,1.0,5.0,99,0.00,,,0.03,WUHU216DAVISVP2,2013-03-12 15:47:00,
2013-03-12 11:52:00,45.8,45.5,29.95,SW,232,1.0,4.0,99,0.00,,,0.03,WUHU216DAVISVP2,2013-03-12 15:52:00,
2013-03-12 11:57:00,45.9,45.6,29.95,SE,132,0.0,4.0,99,0.00,,,0.03,WUHU216DAVISVP2,2013-03-12 15:57:00,
2013-03-12 12:02:00,46.2,45.9,29.94,ESE,109,1.0,4.0,99,0.00,,,0.03,WUHU216DAVISVP2,2013-03-12 16:02:00,
2013-03-12 12:07:00,46.3,46.0,29.94,ESE,109,1.0,3.0,99,0.00,,,0.03,WUHU216DAVISVP2,2013-03-12 16:07:00,
2013-03-12 12:12:00,46.4,46.1,29.94,ESE,112,1.0,3.0,99,0.00,,,0.03,WUHU216DAVISVP2,2013-03-12 16:12:00,
2013-03-12 12:17:00,46.7,46.4,29.94,West,262,1.0,3.0,99,0.00,,,0.03,WUHU216DAVISVP2,2013-03-12 16:17:00,
2013-03-12 12:22:00,46.9,46.6,29.93,West,269,1.0,3.0,99,0.00,,,0.03,WUHU216DAVISVP2,2013-03-12 16:22:00,
2013-03-12 12:27:00,47.0,46.7,29.93,SSW,211,1.0,2.0,99,0.00,,,0.03,WUHU216DAVISVP2,2013-03-12 16:27:00,
2013-03-12 12:32:00,47.2,46.9,29.93,SSW,208,1.5,2.0,99,0.00,,,0.03,WUHU216DAVISVP2,2013-03-12 16:32:00,
2013-03-12 12:37:00,47.4,47.1,29.92,South,191,1.5,4.0,99,0.00,,,0.03,WUHU216DAVISVP2,2013-03-12 16:37:00,
2013-03-12 12:42:00,47.7,47.4,29.91,SE,138,2.0,7.0,99,0.00,,,0.03,WUHU216DAVISVP2,2013-03-12 16:42:00,
2013-03-12 12:47:00,48.1,47.8,29.92,South,180,1.0,7.0,99,0.00,,,0.03,WUHU216DAVISVP2,2013-03-12 16:47:00,
2013-03-12 12:52:00,48.2,47.9,29.91,SE,143,3.0,7.0,99,0.00,,,0.03,WUHU216DAVISVP2,2013-03-12 16:52:00,
2013-03-12 12:57:00,48.4,48.1,29.91,SE,144,1.0,7.0,99,0.00,,,0.03,WUHU216DAVISVP2,2013-03-12 16:57:00,
2013-03-12 13:02:00,48.5,48.2,29.91,SSE,162,1.3,4.0,99,0.00,,,0.03,WUHU216DAVISVP2,2013-03-12 17:02:00,
2013-03-12 13:07:00,48.6,48.3,29.91,SSE,154,1.3,4.0,99,0.00,,,0.03,WUHU216DAVISVP2,2013-03-12 17:07:00,
2013-03-12 13:12:00,48.7,48.4,29.91,SE,141,1.0,4.0,99,0.00,,,0.03,WUHU216DAVISVP2,2013-03-12 17:12:00,
2013-03-12 13:17:00,48.7,48.4,29.91,SW,231,1.7,5.0,99,0.00,,,0.03,WUHU216DAVISVP2,2013-03-12 17:17:00,
2013-03-12 13:22:00,48.8,48.5,29.90,SE,145,1.2,5.0,99,0.00,,,0.03,WUHU216DAVISVP2,2013-03-12 17:22:00,
2013-03-12 13:27:00,49.0,48.4,29.90,SE,126,2.2,5.0,98,0.00,,,0.03,WUHU216DAVISVP2,2013-03-12 17:27:00,
2013-03-12 13:32:00,49.2,48.9,29.90,South,174,1.5,5.0,99,0.00,,,0.03,WUHU216DAVISVP2,2013-03-12 17:32:00,
2013-03-12 13:37:00,49.4,48.8,29.90,SE,126,1.0,5.0,98,0.00,,,0.03,WUHU216DAVISVP2,2013-03-12 17:37:00,
2013-03-12 13:43:00,49.3,48.7,29.90,SE,126,2.0,5.0,98,0.00,,,0.03,WUHU216DAVISVP2,2013-03-12 17:43:00,
2013-03-12 13:48:00,49.5,48.9,29.89,SE,142,1.2,5.0,98,0.00,,,0.03,WUHU216DAVISVP2,2013-03-12 17:48:00,
2013-03-12 13:53:00,49.7,49.1,29.89,SSE,159,2.0,5.0,98,0.00,,,0.03,WUHU216DAVISVP2,2013-03-12 17:53:00,
2013-03-12 13:58:00,49.8,49.2,29.89,SE,134,1.3,5.0,98,0.00,,,0.03,WUHU216DAVISVP2,2013-03-12 17:58:00,
2013-03-12 14:03:00,49.9,49.1,29.88,SE,134,1.0,5.0,97,0.00,,,0.03,WUHU216DAVISVP2,2013-03-12 18:03:00,
2013-03-12 14:08:00,50.0,49.2,29.88,SE,132,1.8,3.0,97,0.00,,,0.03,WUHU216DAVISVP2,2013-03-12 18:08:00,
2013-03-12 14:13:00,50.2,49.4,29.88,SSE,163,2.1,3.0,97,0.00,,,0.03,WUHU216DAVISVP2,2013-03-12 18:13:00,
2013-03-12 14:18:00,50.4,49.3,29.87,South,176,1.4,5.0,96,0.00,,,0.03,WUHU216DAVISVP2,2013-03-12 18:18:00,
2013-03-12 14:23:00,50.5,49.4,29.87,SE,140,1.1,5.0,96,0.00,,,0.03,WUHU216DAVISVP2,2013-03-12 18:23:00,
2013-03-12 14:28:00,50.7,49.6,29.86,SSE,156,3.0,5.0,96,0.00,,,0.03,WUHU216DAVISVP2,2013-03-12 18:28:00,
2013-03-12 14:33:00,50.9,49.5,29.86,SE,130,1.4,5.0,95,0.00,,,0.03,WUHU216DAVISVP2,2013-03-12 18:33:00,
2013-03-12 14:38:00,51.0,49.6,29.86,South,172,2.1,5.0,95,0.00,,,0.03,WUHU216DAVISVP2,2013-03-12 18:38:00,
2013-03-12 14:43:00,51.2,49.8,29.86,SSE,165,1.1,4.0,95,0.00,,,0.03,WUHU216DAVISVP2,2013-03-12 18:43:00,
2013-03-12 14:48:00,51.3,49.6,29.85,SE,146,1.0,4.0,94,0.00,,,0.03,WUHU216DAVISVP2,2013-03-12 18:48:00,
2013-03-12 14:53:00,51.2,49.5,29.85,SE,134,1.3,4.0,94,0.00,,,0.03,WUHU216DAVISVP2,2013-03-12 18:53:00,
2013-03-12 14:58:00,51.2,49.8,29.85,SE,143,2.0,4.0,95,0.00,,,0.03,WUHU216DAVISVP2,2013-03-12 18:58:00,
2013-03-12 15:03:00,51.2,49.8,29.85,SE,143,1.0,4.0,95,0.01,,,0.04,WUHU216DAVISVP2,2013-03-12 19:03:00,
2013-03-12 15:08:00,51.1,49.7,29.84,SE,142,1.0,4.0,95,0.01,,,0.04,WUHU216DAVISVP2,2013-03-12 19:08:00,
2013-03-12 15:13:00,51.0,49.6,29.84,SE,134,1.1,4.0,95,0.01,,,0.04,WUHU216DAVISVP2,2013-03-12 19:13:00,
2013-03-12 15:18:00,50.9,49.5,29.84,SE,134,1.0,4.0,95,0.01,,,0.04,WUHU216DAVISVP2,2013-03-12 19:18:00,
2013-03-12 15:23:00,50.7,49.3,29.84,SE,134,1.6,3.0,95,0.01,,,0.04,WUHU216DAVISVP2,2013-03-12 19:23:00,
2013-03-12 15:28:00,50.5,49.4,29.83,SE,134,1.0,3.0,96,0.02,,,0.05,WUHU216DAVISVP2,2013-03-12 19:28:00,
2013-03-12 15:33:00,50.5,49.4,29.83,SE,134,1.5,2.0,96,0.02,,,0.05,WUHU216DAVISVP2,2013-03-12 19:33:00,
2013-03-12 15:38:00,50.6,49.7,29.83,SE,134,1.4,4.0,97,0.02,,,0.05,WUHU216DAVISVP2,2013-03-12 19:38:00,
2013-03-12 15:43:00,50.6,49.7,29.83,SE,129,2.0,4.0,97,0.02,,,0.05,WUHU216DAVISVP2,2013-03-12 19:43:00,
2013-03-12 15:48:00,50.5,49.4,29.82,SE,129,1.4,4.0,96,0.02,,,0.05,WUHU216DAVISVP2,2013-03-12 19:48:00,
2013-03-12 15:53:00,50.3,49.5,29.82,ESE,113,1.0,4.0,97,0.03,,,0.06,WUHU216DAVISVP2,2013-03-12 19:53:00,
2013-03-12 15:58:00,49.8,48.7,29.81,ESE,113,1.0,3.0,96,0.03,,,0.06,WUHU216DAVISVP2,2013-03-12 19:58:00,
2013-03-12 16:03:00,49.7,48.9,29.81,ESE,113,1.4,3.0,97,0.02,,,0.06,WUHU216DAVISVP2,2013-03-12 20:03:00,
2013-03-12 16:08:00,49.9,49.1,29.81,SE,144,2.0,4.0,97,0.02,,,0.06,WUHU216DAVISVP2,2013-03-12 20:08:00,
2013-03-12 16:13:00,50.1,49.3,29.81,SSE,159,1.9,5.0,97,0.02,,,0.06,WUHU216DAVISVP2,2013-03-12 20:13:00,
2013-03-12 16:18:00,50.2,49.4,29.81,SE,141,2.1,6.0,97,0.02,,,0.06,WUHU216DAVISVP2,2013-03-12 20:18:00,
2013-03-12 16:23:00,50.2,49.4,29.81,SE,140,1.5,6.0,97,0.02,,,0.06,WUHU216DAVISVP2,2013-03-12 20:23:00,
2013-03-12 16:28:00,50.3,49.5,29.80,SE,142,3.2,6.0,97,0.01,,,0.06,WUHU216DAVISVP2,2013-03-12 20:28:00,
2013-03-12 16:33:00,50.3,49.5,29.80,SSE,151,2.1,5.0,97,0.01,,,0.06,WUHU216DAVISVP2,2013-03-12 20:33:00,
2013-03-12 16:38:00,50.4,49.6,29.80,SE,143,2.2,5.0,97,0.01,,,0.06,WUHU216DAVISVP2,2013-03-12 20:38:00,
2013-03-12 16:43:00,50.5,49.7,29.80,SE,138,2.0,5.0,97,0.01,,,0.06,WUHU216DAVISVP2,2013-03-12 20:43:00,
2013-03-12 16:48:00,50.5,49.7,29.79,SSE,156,2.0,7.0,97,0.01,,,0.06,WUHU216DAVISVP2,2013-03-12 20:48:00,
2013-03-12 16:53:00,50.4,49.6,29.79,SSE,156,1.4,7.0,97,0.00,,,0.06,WUHU216DAVISVP2,2013-03-12 20:53:00,
2013-03-12 16:58:00,50.5,49.9,29.79,SE,139,2.2,7.0,98,0.01,,,0.07,WUHU216DAVISVP2,2013-03-12 20:58:00,
2013-03-12 17:03:00,50.4,49.6,29.79,SE,145,1.2,4.0,97,0.01,,,0.07,WUHU216DAVISVP2,2013-03-12 21:03:00,
2013-03-12 17:08:00,50.3,49.5,29.78,SSE,150,1.5,4.0,97,0.01,,,0.07,WUHU216DAVISVP2,2013-03-12 21:08:00,
2013-03-12 17:13:00,50.3,49.5,29.78,SSE,161,1.5,4.0,97,0.02,,,0.08,WUHU216DAVISVP2,2013-03-12 21:13:00,
2013-03-12 17:18:00,50.4,49.8,29.78,SE,130,1.1,4.0,98,0.02,,,0.08,WUHU216DAVISVP2,2013-03-12 21:18:00,
2013-03-12 17:23:00,50.3,49.5,29.78,SSE,157,3.0,5.0,97,0.02,,,0.08,WUHU216DAVISVP2,2013-03-12 21:23:00,
2013-03-12 17:28:00,50.2,49.4,29.77,SSE,154,1.1,5.0,97,0.03,,,0.09,WUHU216DAVISVP2,2013-03-12 21:28:00,
2013-03-12 17:33:00,50.2,49.6,29.77,SE,132,2.7,5.0,98,0.03,,,0.09,WUHU216DAVISVP2,2013-03-12 21:33:00,
2013-03-12 17:38:00,50.2,49.6,29.77,SSE,153,1.1,5.0,98,0.03,,,0.09,WUHU216DAVISVP2,2013-03-12 21:38:00,
2013-03-12 17:43:00,50.2,49.6,29.77,SSE,153,1.0,5.0,98,0.03,,,0.09,WUHU216DAVISVP2,2013-03-12 21:43:00,
2013-03-12 17:48:00,50.2,49.6,29.76,SE,135,1.2,5.0,98,0.04,,,0.10,WUHU216DAVISVP2,2013-03-12 21:48:00,
2013-03-12 17:53:00,50.2,49.6,29.76,SSE,147,2.0,4.0,98,0.04,,,0.10,WUHU216DAVISVP2,2013-03-12 21:53:00,
2013-03-12 17:58:00,50.0,49.4,29.76,SE,136,1.4,5.0,98,0.03,,,0.10,WUHU216DAVISVP2,2013-03-12 21:58:00,
2013-03-12 18:03:00,49.8,49.2,29.75,SSE,148,1.2,5.0,98,0.03,,,0.10,WUHU216DAVISVP2,2013-03-12 22:03:00,
2013-03-12 18:08:00,49.9,49.3,29.75,South,169,2.0,5.0,98,0.04,,,0.11,WUHU216DAVISVP2,2013-03-12 22:08:00,
2013-03-12 18:13:00,49.9,49.3,29.75,SSE,154,1.7,5.0,98,0.04,,,0.12,WUHU216DAVISVP2,2013-03-12 22:13:00,
2013-03-12 18:18:00,49.8,49.2,29.75,SE,144,2.0,3.0,98,0.04,,,0.12,WUHU216DAVISVP2,2013-03-12 22:18:00,
2013-03-12 18:23:00,49.8,49.2,29.75,SE,144,1.3,3.0,98,0.05,,,0.13,WUHU216DAVISVP2,2013-03-12 22:23:00,
2013-03-12 18:28:00,49.8,49.2,29.75,SE,138,1.7,3.0,98,0.04,,,0.13,WUHU216DAVISVP2,2013-03-12 22:28:00,
2013-03-12 18:33:00,49.7,49.1,29.75,SE,137,1.0,3.0,98,0.05,,,0.14,WUHU216DAVISVP2,2013-03-12 22:33:00,
2013-03-12 18:38:00,49.5,48.9,29.74,SE,137,1.0,3.0,98,0.06,,,0.15,WUHU216DAVISVP2,2013-03-12 22:38:00,
2013-03-12 18:43:00,49.2,48.6,29.74,SE,137,1.0,3.0,98,0.07,,,0.16,WUHU216DAVISVP2,2013-03-12 22:43:00,
2013-03-12 18:48:00,49.1,48.5,29.74,SE,137,1.0,2.0,98,0.07,,,0.17,WUHU216DAVISVP2,2013-03-12 22:48:00,
2013-03-12 18:53:00,49.0,48.2,29.74,SE,137,0.0,2.0,97,0.08,,,0.18,WUHU216DAVISVP2,2013-03-12 22:53:00,
2013-03-12 18:58:00,48.8,48.2,29.73,SE,137,1.0,2.0,98,0.09,,,0.19,WUHU216DAVISVP2,2013-03-12 22:58:00,
2013-03-12 19:03:00,48.6,47.8,29.73,SE,137,1.0,2.0,97,0.10,,,0.20,WUHU216DAVISVP2,2013-03-12 23:03:00,
2013-03-12 19:08:00,48.5,47.9,29.73,SE,137,1.0,2.0,98,0.11,,,0.22,WUHU216DAVISVP2,2013-03-12 23:08:00,
2013-03-12 19:13:00,47.9,47.1,29.72,SE,137,1.0,2.0,97,0.10,,,0.22,WUHU216DAVISVP2,2013-03-12 23:13:00,
2013-03-12 19:18:00,47.9,47.3,29.72,SE,137,1.0,1.0,98,0.12,,,0.24,WUHU216DAVISVP2,2013-03-12 23:18:00,
2013-03-12 19:23:00,47.8,47.2,29.72,SE,137,0.0,1.0,98,0.13,,,0.26,WUHU216DAVISVP2,2013-03-12 23:23:00,
2013-03-12 19:28:00,47.7,47.1,29.71,SE,137,1.2,2.0,98,0.14,,,0.27,WUHU216DAVISVP2,2013-03-12 23:28:00,
2013-03-12 19:33:00,47.8,47.2,29.71,SE,137,0.0,2.0,98,0.14,,,0.28,WUHU216DAVISVP2,2013-03-12 23:33:00,
2013-03-12 19:38:00,47.5,46.9,29.71,SE,137,1.0,2.0,98,0.13,,,0.28,WUHU216DAVISVP2,2013-03-12 23:38:00,
2013-03-12 19:43:00,47.4,46.8,29.70,SE,137,1.0,2.0,98,0.13,,,0.30,WUHU216DAVISVP2,2013-03-12 23:43:00,
2013-03-12 19:48:00,47.5,46.9,29.69,East,95,1.3,2.0,98,0.13,,,0.30,WUHU216DAVISVP2,2013-03-12 23:48:00,
2013-03-12 19:53:00,47.6,47.0,29.69,East,95,0.0,2.0,98,0.12,,,0.31,WUHU216DAVISVP2,2013-03-12 23:53:00,
2013-03-12 19:58:00,47.6,47.0,29.69,SE,138,1.1,2.0,98,0.12,,,0.32,WUHU216DAVISVP2,2013-03-12 23:58:00,
2013-03-12 20:03:00,47.7,47.1,29.68,SSE,148,1.0,2.0,98,0.12,,,0.32,WUHU216DAVISVP2,2013-03-13 00:03:00,
2013-03-12 20:08:00,47.8,47.5,29.68,ESE,103,1.0,3.0,99,0.11,,,0.33,WUHU216DAVISVP2,2013-03-13 00:08:00,
2013-03-12 20:13:00,47.7,47.1,29.68,ESE,103,1.0,3.0,98,0.12,,,0.34,WUHU216DAVISVP2,2013-03-13 00:13:00,
2013-03-12 20:18:00,47.9,47.6,29.68,SSE,153,2.0,3.0,99,0.10,,,0.34,WUHU216DAVISVP2,2013-03-13 00:18:00,
2013-03-12 20:23:00,48.5,48.2,29.68,SW,220,1.0,4.0,99,0.08,,,0.34,WUHU216DAVISVP2,2013-03-13 00:23:00,
2013-03-12 20:28:00,48.7,48.4,29.68,SW,220,0.0,4.0,99,0.08,,,0.35,WUHU216DAVISVP2,2013-03-13 00:28:00,
2013-03-12 20:33:00,48.8,48.5,29.68,SSW,213,1.0,4.0,99,0.07,,,0.35,WUHU216DAVISVP2,2013-03-13 00:33:00,
2013-03-12 20:38:00,49.0,48.7,29.68,SSW,213,0.0,3.0,99,0.07,,,0.35,WUHU216DAVISVP2,2013-03-13 00:38:00,
2013-03-12 20:43:00,48.9,48.6,29.68,SSW,213,1.2,2.0,99,0.07,,,0.36,WUHU216DAVISVP2,2013-03-13 00:43:00,
2013-03-12 20:48:00,49.2,48.9,29.67,SSW,209,1.0,2.0,99,0.06,,,0.36,WUHU216DAVISVP2,2013-03-13 00:48:00,
2013-03-12 20:53:00,49.4,49.1,29.68,SSW,209,0.0,2.0,99,0.05,,,0.36,WUHU216DAVISVP2,2013-03-13 00:53:00,
2013-03-12 20:58:00,49.5,49.2,29.68,SSW,208,1.0,2.0,99,0.04,,,0.36,WUHU216DAVISVP2,2013-03-13 00:58:00,
2013-03-12 21:03:00,49.3,49.0,29.67,SSW,207,1.0,2.0,99,0.04,,,0.36,WUHU216DAVISVP2,2013-03-13 01:03:00,
2013-03-12 21:08:00,49.4,49.1,29.67,SSW,201,1.7,3.0,99,0.03,,,0.36,WUHU216DAVISVP2,2013-03-13 01:08:00,
2013-03-12 21:13:00,49.5,49.2,29.67,SSW,208,1.0,3.0,99,0.02,,,0.36,WUHU216DAVISVP2,2013-03-13 01:13:00,
2013-03-12 21:18:00,49.7,49.4,29.67,SSW,207,1.0,3.0,99,0.02,,,0.36,WUHU216DAVISVP2,2013-03-13 01:18:00,
2013-03-12 21:23:00,49.7,49.4,29.67,WNW,300,0.0,2.0,99,0.02,,,0.36,WUHU216DAVISVP2,2013-03-13 01:23:00,
2013-03-12 21:28:00,49.8,49.5,29.67,WNW,300,1.0,2.0,99,0.01,,,0.36,WUHU216DAVISVP2,2013-03-13 01:28:00,
2013-03-12 21:33:00,49.8,49.5,29.67,WNW,300,0.0,2.0,99,0.01,,,0.36,WUHU216DAVISVP2,2013-03-13 01:33:00,
2013-03-12 21:38:00,49.8,49.5,29.67,SW,223,1.0,2.0,99,0.01,,,0.36,WUHU216DAVISVP2,2013-03-13 01:38:00,
2013-03-12 21:43:00,49.7,49.4,29.67,West,273,2.0,3.0,99,0.00,,,0.36,WUHU216DAVISVP2,2013-03-13 01:43:00,
2013-03-12 21:48:00,49.8,49.5,29.67,SSW,194,0.0,3.0,99,0.00,,,0.36,WUHU216DAVISVP2,2013-03-13 01:48:00,
2013-03-12 21:53:00,49.9,49.6,29.67,West,267,1.3,4.0,99,0.00,,,0.36,WUHU216DAVISVP2,2013-03-13 01:53:00,
2013-03-12 21:58:00,50.2,49.9,29.67,WSW,238,1.9,4.0,99,0.00,,,0.36,WUHU216DAVISVP2,2013-03-13 01:58:00,
2013-03-12 22:03:00,50.2,49.9,29.67,SW,220,1.4,4.0,99,0.00,,,0.36,WUHU216DAVISVP2,2013-03-13 02:03:00,
2013-03-12 22:08:00,50.2,49.9,29.68,SSW,192,5.0,6.0,99,0.00,,,0.36,WUHU216DAVISVP2,2013-03-13 02:08:00,
2013-03-12 22:13:00,50.3,50.0,29.68,SW,230,1.7,6.0,99,0.00,,,0.36,WUHU216DAVISVP2,2013-03-13 02:13:00,
2013-03-12 22:18:00,50.3,50.0,29.68,SW,230,1.0,6.0,99,0.00,,,0.36,WUHU216DAVISVP2,2013-03-13 02:18:00,
2013-03-12 22:23:00,50.3,50.0,29.68,WSW,237,2.3,6.0,99,0.00,,,0.36,WUHU216DAVISVP2,2013-03-13 02:23:00,
2013-03-12 22:28:00,50.1,49.8,29.68,SW,215,1.0,5.0,99,0.00,,,0.36,WUHU216DAVISVP2,2013-03-13 02:28:00,
2013-03-12 22:33:00,50.1,49.8,29.68,WSW,248,1.0,6.0,99,0.00,,,0.36,WUHU216DAVISVP2,2013-03-13 02:33:00,
2013-03-12 22:38:00,50.0,49.7,29.67,SSW,205,4.0,6.0,99,0.00,,,0.36,WUHU216DAVISVP2,2013-03-13 02:38:00,
2013-03-12 22:43:00,50.0,49.7,29.67,SSW,205,1.0,6.0,99,0.00,,,0.36,WUHU216DAVISVP2,2013-03-13 02:43:00,
2013-03-12 22:48:00,49.9,49.6,29.67,West,270,1.0,6.0,99,0.00,,,0.36,WUHU216DAVISVP2,2013-03-13 02:48:00,
2013-03-12 22:53:00,49.6,49.3,29.68,West,270,1.0,4.0,99,0.00,,,0.36,WUHU216DAVISVP2,2013-03-13 02:53:00,
2013-03-12 22:58:00,49.6,49.3,29.68,WNW,287,1.3,4.0,99,0.00,,,0.36,WUHU216DAVISVP2,2013-03-13 02:58:00,
2013-03-12 23:03:00,49.3,48.7,29.68,WNW,291,0.0,4.0,98,0.00,,,0.36,WUHU216DAVISVP2,2013-03-13 03:03:00,
2013-03-12 23:08:00,48.9,48.3,29.68,WNW,291,1.0,4.0,98,0.00,,,0.36,WUHU216DAVISVP2,2013-03-13 03:08:00,
2013-03-12 23:13:00,48.7,48.1,29.68,West,268,1.0,2.0,98,0.00,,,0.36,WUHU216DAVISVP2,2013-03-13 03:13:00,
2013-03-12 23:18:00,49.0,48.7,29.68,WNW,297,3.0,6.0,99,0.00,,,0.36,WUHU216DAVISVP2,2013-03-13 03:18:00,
2013-03-12 23:23:00,48.8,48.5,29.69,SSW,199,3.0,6.0,99,0.00,,,0.36,WUHU216DAVISVP2,2013-03-13 03:23:00,
2013-03-12 23:28:00,49.3,49.0,29.69,WSW,254,2.5,6.0,99,0.00,,,0.36,WUHU216DAVISVP2,2013-03-13 03:28:00,
2013-03-12 23:33:00,49.0,48.7,29.69,West,269,1.0,6.0,99,0.00,,,0.36,WUHU216DAVISVP2,2013-03-13 03:33:00,
2013-03-12 23:38:00,48.6,48.0,29.69,West,269,1.3,6.0,98,0.00,,,0.36,WUHU216DAVISVP2,2013-03-13 03:38:00,
2013-03-12 23:43:00,48.4,47.8,29.70,WSW,253,2.0,5.0,98,0.00,,,0.36,WUHU216DAVISVP2,2013-03-13 03:43:00,
2013-03-12 23:48:00,48.1,47.5,29.70,WNW,290,2.4,5.0,98,0.00,,,0.36,WUHU216DAVISVP2,2013-03-13 03:48:00,
2013-03-12 23:53:00,47.9,47.3,29.70,WSW,240,3.2,7.0,98,0.00,,,0.36,WUHU216DAVISVP2,2013-03-13 03:53:00,
2013-03-12 23:58:00,47.5,46.9,29.70,SW,222,1.8,7.0,98,0.00,,,0.36,WUHU216DAVISVP2,2013-03-13 03:58:00,